Weather History for Stevensville, MD

Change the Weather History Date:

Monday, February 11, 2013

  Actual Average (KESN) Record (KESN)
Temperature  
Mean Temperature 45 °F -  
Max Temperature 53 °F 45 °F 68 °F (2009)
Min Temperature 37 °F 26 °F 7 °F (1962)
Degree Days  
Heating Degree Days 20    
Moisture  
Dew Point 43 °F    
Average Humidity 95    
Maximum Humidity 100    
Minimum Humidity 81    
Precipitation  
Precipitation 0.00 in - - ()
Sea Level Pressure  
Sea Level Pressure 29.96 in    
Wind  
Wind Speed 6 mph (South)    
Max Wind Speed 13 mph    
Max Gust Speed 20 mph    
Visibility 6 miles    
Events      
Averages and records for this station are not official NWS values.
T = Trace of Precipitation, MM = Missing Value Source: NWS Daily Summary

Daily Weather History Graph

Daily Weather History Graph

Search for Another Location

Airport:

Trip Planner

Search our weather history database for the weather conditions in past years. The results will help you decide how hot, cold, wet, or windy it might be!

Date:

Astronomy

Feb. 11, 2013 Rise Set
Actual Time 7:01 AM EST 5:38 PM EST
Civil Twilight 6:33 AM EST 6:06 PM EST
Nautical Twilight 6:02 AM EST 6:37 PM EST
Astronomical Twilight 5:31 AM EST 7:08 PM EST
Moon 7:25 AM EST (2/11) 7:31 PM EST (2/11)
Length of Visible Light 11h 32m
Length of Day
10h 37m
Waxing Crescent, 3% of the Moon is Illuminated
Feb 11
Waxing Crescent
Feb 17
First Quarter
Feb 25
Full
Mar 4
Last Quarter
Mar 11
New

Hourly Weather History & Observations

Time (EST) Temp. Windchill Dew Point Humidity Pressure Visibility Wind Dir Wind Speed Gust Speed Precip Events Conditions
12:19 AM 37.4 °F 30.3 °F 32.0 °F 81% 30.27 in 10.0 mi SSE 10.4 mph - N/A   Clear
12:36 AM 37.4 °F 30.3 °F 32.0 °F 81% 30.26 in 10.0 mi SSE 10.4 mph - N/A   Scattered Clouds
12:53 AM 37.4 °F 30.3 °F 32.0 °F 81% 30.25 in 10.0 mi SSE 10.4 mph - N/A   Mostly Cloudy
1:14 AM 37.4 °F 31.4 °F 32.0 °F 81% 30.25 in 10.0 mi SSE 8.1 mph - N/A   Mostly Cloudy
1:40 AM 37.4 °F 32.8 °F 33.8 °F 87% 30.24 in 10.0 mi SSE 5.8 mph - N/A   Mostly Cloudy
2:00 AM 37.4 °F 33.8 °F 33.8 °F 87% 30.23 in 10.0 mi South 4.6 mph - N/A   Overcast
2:20 AM 37.4 °F 34.9 °F 35.6 °F 93% 30.22 in 10.0 mi SSE 3.5 mph - N/A   Overcast
2:40 AM 37.4 °F 34.9 °F 35.6 °F 93% 30.20 in 5.0 mi SE 3.5 mph - N/A   Overcast
3:00 AM 37.4 °F 34.9 °F 35.6 °F 93% 30.19 in 7.0 mi ESE 3.5 mph - N/A   Overcast
3:20 AM 37.4 °F - 37.4 °F 100% 30.18 in 3.0 mi Calm Calm - N/A   Overcast
3:38 AM 37.4 °F - 37.4 °F 100% 30.17 in 2.0 mi Calm Calm - N/A   Overcast
3:59 AM 37.4 °F 33.8 °F 37.4 °F 100% 30.15 in 3.0 mi ESE 4.6 mph - N/A   Overcast
4:20 AM 37.4 °F 33.8 °F 37.4 °F 100% 30.13 in 3.0 mi ESE 4.6 mph - N/A   Overcast
4:40 AM 37.4 °F 34.9 °F 37.4 °F 100% 30.12 in 5.0 mi SE 3.5 mph - N/A   Overcast
4:59 AM 37.4 °F - 37.4 °F 100% 30.11 in 3.0 mi Calm Calm - N/A   Overcast
5:18 AM 37.4 °F - 37.4 °F 100% 30.10 in 5.0 mi Calm Calm - N/A   Overcast
5:39 AM 37.4 °F 34.9 °F 37.4 °F 100% 30.09 in 4.0 mi SE 3.5 mph - N/A   Overcast
6:00 AM 37.4 °F - 37.4 °F 100% 30.08 in 3.0 mi Calm Calm - N/A   Overcast
6:20 AM 37.4 °F - 37.4 °F 100% 30.07 in 2.5 mi Calm Calm - N/A   Overcast
6:40 AM 37.4 °F - 37.4 °F 100% 30.07 in 2.5 mi Calm Calm - N/A   Overcast
6:59 AM 39.2 °F 35.9 °F 39.2 °F 100% 30.06 in 2.0 mi South 4.6 mph - N/A   Overcast
7:20 AM 41.0 °F 38.0 °F 41.0 °F 100% 30.06 in 5.0 mi SW 4.6 mph - N/A   Overcast
7:40 AM 41.0 °F 38.0 °F 41.0 °F 100% 30.06 in 10.0 mi SW 4.6 mph - N/A   Overcast
8:00 AM 39.2 °F 37.0 °F 39.2 °F 100% 30.05 in 5.0 mi SSW 3.5 mph - N/A   Overcast
8:20 AM 39.2 °F - 39.2 °F 100% 30.04 in 5.0 mi Calm Calm - N/A   Overcast
8:41 AM 39.2 °F - 39.2 °F 100% 30.02 in 4.0 mi Calm Calm - N/A   Overcast
9:01 AM 39.2 °F 37.0 °F 39.2 °F 100% 30.02 in 7.0 mi South 3.5 mph - N/A   Overcast
9:21 AM 39.2 °F 37.0 °F 39.2 °F 100% 30.02 in 4.0 mi South 3.5 mph - N/A   Overcast
9:41 AM 41.0 °F 39.0 °F 41.0 °F 100% 30.02 in 2.0 mi SW 3.5 mph - N/A   Overcast
10:01 AM 41.0 °F 38.0 °F 41.0 °F 100% 30.00 in 1.5 mi South 4.6 mph - N/A   Overcast
10:21 AM 41.0 °F 39.0 °F 41.0 °F 100% 29.99 in 4.0 mi South 3.5 mph - N/A   Overcast
11:01 AM 42.8 °F 40.1 °F 42.8 °F 100% 29.98 in 1.0 mi SSE 4.6 mph - N/A   Overcast
11:21 AM 42.8 °F 40.1 °F 42.8 °F 100% 29.95 in 0.8 mi SSE 4.6 mph - N/A   Overcast
11:41 AM 42.8 °F 41.1 °F 42.8 °F 100% 29.94 in 0.8 mi South 3.5 mph - N/A   Overcast
11:58 AM 44.6 °F 41.4 °F 44.6 °F 100% 29.92 in 1.5 mi South 5.8 mph - N/A   Overcast
12:20 PM 44.6 °F 40.2 °F 44.6 °F 100% 29.91 in 1.5 mi South 8.1 mph - N/A   Overcast
12:37 PM 46.4 °F 42.4 °F 46.4 °F 100% 29.89 in 2.0 mi South 8.1 mph - N/A   Overcast
1:01 PM 46.4 °F 42.4 °F 46.4 °F 100% 29.86 in 1.5 mi South 8.1 mph - N/A   Overcast
1:18 PM 46.4 °F 42.9 °F 46.4 °F 100% 29.85 in 1.0 mi South 6.9 mph - N/A   Overcast
1:36 PM 46.4 °F 44.3 °F 46.4 °F 100% 29.85 in 1.5 mi South 4.6 mph - N/A   Overcast
2:00 PM 48.2 °F - 48.2 °F 100% 29.84 in 2.0 mi SSW 5.8 mph - N/A   Overcast
2:21 PM 48.2 °F - 48.2 °F 100% 29.83 in 1.8 mi South 5.8 mph - N/A   Overcast
3:00 PM 50.0 °F - 50.0 °F 100% 29.79 in 4.0 mi South 5.8 mph - N/A   Overcast
3:21 PM 50.0 °F - 50.0 °F 100% 29.79 in 7.0 mi SSW 4.6 mph - N/A   Overcast
3:41 PM 51.8 °F - 51.8 °F 100% 29.79 in 10.0 mi SSW 9.2 mph - N/A   Overcast
4:01 PM 51.8 °F - 51.8 °F 100% 29.77 in 10.0 mi SSW 11.5 mph - N/A   Overcast
4:21 PM 51.8 °F - 51.8 °F 100% 29.76 in 10.0 mi SSW 12.7 mph 19.6 mph N/A   Mostly Cloudy
4:41 PM 51.8 °F - 51.8 °F 100% 29.75 in 10.0 mi SSW 11.5 mph 18.4 mph N/A   Scattered Clouds
6:02 PM 53.6 °F - 51.8 °F 94% 29.73 in 10.0 mi SSW 12.7 mph 17.3 mph N/A   Clear
6:22 PM 53.6 °F - 51.8 °F 94% 29.72 in 10.0 mi SSW 11.5 mph 16.1 mph N/A   Clear
6:42 PM 53.6 °F - 51.8 °F 94% 29.72 in 10.0 mi SSW 11.5 mph 18.4 mph N/A   Clear
7:02 PM 53.6 °F - 51.8 °F 94% 29.71 in 10.0 mi SSW 10.4 mph 19.6 mph N/A   Clear
7:22 PM 53.6 °F - 51.8 °F 94% 29.71 in 10.0 mi SSW 11.5 mph 18.4 mph N/A   Clear
7:42 PM 53.6 °F - 50.0 °F 88% 29.71 in 10.0 mi SSW 10.4 mph - N/A   Clear
8:02 PM 53.6 °F - 50.0 °F 88% 29.71 in 10.0 mi SSW 9.2 mph - N/A   Clear
8:22 PM 53.6 °F - 50.0 °F 88% 29.71 in 10.0 mi SSW 8.1 mph - N/A   Clear
9:02 PM 53.6 °F - 48.2 °F 82% 29.73 in 10.0 mi SW 9.2 mph - N/A   Clear
9:22 PM 53.6 °F - 48.2 °F 82% 29.72 in 10.0 mi SW 3.5 mph - N/A   Clear
10:02 PM 51.8 °F - 46.4 °F 82% 29.75 in 10.0 mi West 3.5 mph - N/A   Clear
10:22 PM 50.0 °F - 44.6 °F 82% 29.76 in 10.0 mi Calm Calm - N/A   Clear
11:02 PM 48.2 °F - 44.6 °F 87% 29.77 in 10.0 mi Calm Calm - N/A   Clear
11:22 PM 48.2 °F - 44.6 °F 87% 29.78 in 10.0 mi West 3.5 mph - N/A   Clear
11:42 PM 46.4 °F 44.3 °F 46.4 °F 100% 29.79 in 10.0 mi WNW 4.6 mph - N/A   Clear